Probability
6 13 13 16 16 6 6 6 6 6 6 3 6 0 0 0 0 0 0 0 0 0 0 0 0 0 0 0 0 0 0 0 0 0 0 0 0 0 0 0 0 0 0
10 10 10 19 16 13 13 13 6 6 6 6 3 0 0 0 0 0 0 0 0 0 0 0 0 0 0 0 0 0 0 0 0 0 0 0 0 0 0 0 0 0 0
16 13 13 19 23 10 6 10 6 6 6 3 0 0 0 0 0 0 0 0 0 0 0 0 0 0 0 0 0 0 0 0 0 0 0 0 0 0 0 0 0 0 0
13 10 13 13 19 19 6 6 6 10 6 3 0 0 0 0 0 0 0 0 0 0 0 0 0 0 0 0 0 0 0 0 0 0 0 0 0 0 0 0 0 0 0
10 13 13 6 6 19 16 13 10 10 6 3 3 0 0 0 0 0 0 0 0 0 0 0 0 0 0 0 0 0 0 0 0 0 0 0 0 0 0 0 0 0 0
10 13 10 6 6 6 10 13 10 13 6 3 3 0 0 0 0 0 0 0 0 0 0 0 0 0 0 0 0 0 0 0 0 0 0 0 0 0 0 0 0 0 0
3 10 10 10 6 10 16 13 10 10 6 3 3 3 0 0 0 0 0 0 0 0 0 0 0 0 0 0 0 0 0 0 0 0 0 0 0 0 0 0 0 0 0
3 10 10 10 10 6 10 13 10 10 10 6 3 0 0 0 0 0 0 0 0 0 0 0 0 0 0 0 0 0 0 0 0 0 0 0 0 0 0 0 0 0 0
0 3 6 10 10 6 19 16 10 10 10 10 6 3 0 0 0 0 0 0 0 0 0 0 0 0 0 0 0 0 0 0 0 0 0 0 0 0 0 0 0 0 0
3 0 3 10 10 10 13 16 13 13 10 10 6 6 6 0 0 0 0 0 0 0 0 0 0 0 0 0 0 0 0 0 0 0 0 0 0 0 0 0 0 0 0
0 0 3 6 13 13 13 16 19 16 13 10 6 6 6 3 0 0 0 0 0 0 0 0 0 0 0 0 0 0 0 0 0 0 0 0 0 0 0 0 0 0 0
3 6 6 6 16 13 13 13 16 13 10 10 6 6 6 6 3 3 3 3 3 0 0 0 0 0 0 0 0 0 0 0 0 0 0 0 0 0 0 0 0 0 0
0 6 10 10 10 13 13 16 16 16 13 10 10 10 10 10 10 3 3 3 3 0 0 0 0 0 0 0 0 0 0 0 0 0 0 0 0 0 0 0 0 0 0
0 3 3 6 10 10 10 16 16 13 6 10 10 13 10 10 6 3 3 3 3 3 0 0 0 0 0 0 0 0 0 0 0 0 0 0 0 0 0 0 0 0 0
3 0 3 3 6 10 10 10 10 10 10 13 10 10 6 6 6 3 3 0 0 3 3 0 0 0 0 0 0 0 0 0 0 0 0 0 0 0 0 0 0 0 0
6 3 3 3 3 3 6 6 6 6 10 10 6 6 6 6 6 6 3 3 3 3 3 3 6 3 0 0 0 0 0 0 0 0 0 0 0 0 0 0 0 0 0
3 3 3 3 3 3 3 3 3 10 10 3 3 6 6 6 6 6 6 3 3 3 3 3 3 6 3 0 0 0 0 0 0 0 0 0 0 0 0 0 0 0 0
0 3 3 3 3 3 3 3 3 3 3 3 3 3 3 3 3 3 3 3 3 3 3 3 3 3 0 0 0 0 0 0 0 0 0 0 0 0 0 0 0 0 0
0 0 0 3 3 3 3 3 3 3 3 3 3 3 3 3 3 3 3 3 3 3 3 0 0 0 0 0 0 0 0 0 0 0 0 0 0 0 0 0 0 0 0
0 0 0 0 0 0 3 3 3 3 3 3 0 0 0 0 0 0 0 0 0 0 0 0 0 0 0 0 0 0 0 0 0 0 0 0 0 0 0 0 0 0 0
0 0 0 0 0 0 0 0 0 0 0 0 0 0 0 0 0 0 0 0 0 0 0 0 0 0 0 0 0 0 0 0 0 0 0 0 0 0 0 0 0 0 0
0 0 0 0 0 0 0 0 0 0 0 0 0 0 0 0 0 0 0 0 0 0 0 0 0 0 0 0 0 0 0 0 0 0 0 0 0 0 0 0 0 0 0
0 0 0 0 0 0 0 0 0 0 0 0 0 0 0 0 0 0 0 0 0 0 0 0 0 0 0 0 0 0 0 0 0 0 0 0 0 0 0 0 0 0 0
0 0 0 0 0 0 0 0 0 0 0 0 0 0 0 0 0 0 0 0 0 0 0 0 0 0 0 0 0 0 0 0 0 0 0 0 0 0 0 0 0 0 0
0 0 0 0 0 0 0 0 0 0 0 0 0 0 0 0 0 0 0 0 0 0 0 0 0 0 0 0 0 0 0 0 0 0 0 0 0 0 0 0 0 0 0
0 0 0 0 0 0 0 0 0 0 0 0 0 0 0 0 0 0 0 0 0 0 0 0 0 0 0 0 0 0 0 0 0 0 0 0 0 0 0 0 0 0 0
Height
5831 5830 5829 5828 5828 5829 5832 5835 5837 5839 5842 5845 5848 5851 5854 5856 5858 5860 5862 5864 5865 5867 5868 5869 5870 5870 5871 5872 5872 5872 5872 5872 5872 5873 5872 5872 5871 5871 5871 5871 5871 5871 5872
5830 5828 5827 5827 5827 5828 5829 5832 5835 5837 5840 5843 5846 5849 5852 5854 5857 5859 5861 5863 5864 5866 5867 5868 5869 5870 5871 5871 5872 5872 5872 5872 5872 5873 5873 5872 5873 5872 5872 5871 5871 5871 5871
5831 5829 5827 5826 5826 5826 5828 5830 5832 5835 5838 5841 5845 5848 5850 5852 5855 5857 5859 5861 5863 5865 5866 5867 5868 5870 5870 5871 5872 5872 5873 5873 5873 5873 5873 5873 5873 5872 5872 5872 5872 5871 5871
5831 5829 5827 5826 5825 5825 5827 5828 5831 5834 5837 5840 5843 5845 5848 5851 5854 5856 5858 5860 5861 5863 5865 5866 5867 5869 5870 5871 5871 5872 5872 5873 5873 5873 5873 5873 5873 5873 5873 5872 5872 5871 5871
5830 5828 5827 5825 5824 5825 5826 5828 5830 5833 5836 5838 5841 5844 5847 5850 5852 5854 5856 5858 5860 5862 5864 5865 5866 5868 5869 5870 5870 5871 5872 5872 5873 5873 5872 5873 5873 5872 5872 5872 5872 5871 5870
5830 5828 5827 5825 5824 5825 5826 5827 5829 5832 5834 5836 5839 5843 5845 5848 5850 5852 5854 5856 5858 5860 5862 5864 5865 5866 5867 5868 5869 5870 5871 5871 5872 5872 5872 5872 5872 5871 5871 5871 5870 5870 5870
5830 5829 5827 5825 5824 5824 5825 5826 5828 5830 5832 5835 5838 5841 5843 5846 5848 5850 5852 5854 5857 5858 5860 5862 5863 5865 5866 5867 5868 5868 5869 5870 5870 5870 5870 5870 5870 5870 5869 5869 5869 5868 5868
5830 5829 5827 5826 5825 5824 5824 5825 5826 5828 5831 5833 5836 5838 5841 5844 5846 5848 5850 5852 5854 5856 5858 5860 5861 5862 5863 5865 5866 5866 5867 5867 5868 5868 5868 5868 5868 5868 5867 5867 5866 5866 5865
5829 5828 5827 5826 5825 5824 5824 5824 5825 5827 5829 5831 5834 5836 5839 5841 5844 5846 5848 5850 5852 5854 5855 5857 5858 5860 5861 5862 5863 5864 5864 5864 5865 5865 5865 5865 5865 5865 5864 5864 5863 5863 5862
5828 5827 5826 5825 5825 5824 5824 5824 5825 5826 5828 5830 5832 5834 5836 5838 5840 5843 5845 5846 5848 5850 5852 5853 5855 5856 5857 5858 5859 5860 5860 5861 5861 5861 5861 5861 5861 5860 5860 5860 5859 5859 5859
5827 5826 5826 5825 5825 5824 5823 5824 5824 5824 5826 5828 5830 5831 5833 5835 5838 5840 5841 5843 5845 5846 5848 5849 5850 5851 5853 5853 5854 5855 5855 5856 5856 5856 5856 5856 5855 5855 5855 5855 5854 5854 5853
5825 5825 5824 5824 5824 5823 5823 5823 5822 5823 5824 5825 5827 5829 5830 5832 5834 5836 5837 5839 5841 5842 5843 5844 5846 5847 5847 5848 5849 5849 5850 5850 5850 5850 5850 5850 5850 5849 5849 5848 5848 5847 5847
5823 5822 5822 5822 5822 5822 5822 5822 5821 5821 5822 5823 5824 5825 5827 5829 5830 5832 5833 5835 5836 5837 5838 5839 5840 5841 5841 5842 5842 5843 5843 5843 5843 5843 5843 5843 5842 5842 5841 5841 5840 5840 5839
5821 5820 5820 5819 5820 5820 5820 5820 5820 5819 5820 5820 5821 5823 5824 5826 5827 5828 5829 5830 5831 5832 5833 5833 5834 5834 5835 5835 5835 5835 5836 5835 5835 5835 5835 5834 5834 5834 5833 5832 5832 5832 5831
5818 5817 5817 5817 5817 5817 5817 5817 5817 5817 5817 5818 5818 5819 5821 5822 5823 5823 5824 5825 5826 5826 5827 5827 5827 5827 5827 5827 5827 5827 5827 5827 5827 5826 5826 5825 5825 5824 5824 5823 5822 5822 5822
5815 5814 5814 5814 5814 5814 5815 5815 5814 5814 5814 5814 5814 5815 5817 5818 5818 5818 5818 5819 5819 5819 5820 5820 5820 5819 5819 5819 5818 5818 5818 5817 5817 5816 5815 5815 5815 5814 5813 5812 5811 5811 5811
5811 5811 5811 5811 5811 5811 5811 5811 5811 5811 5810 5810 5810 5812 5812 5812 5813 5813 5813 5813 5813 5813 5813 5812 5812 5811 5810 5809 5809 5808 5808 5807 5806 5806 5805 5804 5804 5803 5802 5801 5800 5799 5799
5807 5807 5807 5807 5807 5807 5807 5807 5807 5807 5807 5807 5807 5807 5807 5807 5807 5807 5807 5807 5806 5806 5805 5804 5803 5802 5801 5800 5799 5798 5797 5796 5796 5795 5794 5793 5792 5792 5790 5789 5788 5787 5786
5803 5802 5803 5803 5803 5803 5803 5803 5803 5802 5802 5802 5802 5801 5801 5801 5801 5801 5800 5799 5799 5798 5796 5795 5794 5793 5792 5790 5789 5787 5786 5785 5785 5784 5782 5781 5780 5779 5778 5777 5776 5775 5774
5797 5798 5798 5799 5799 5799 5798 5798 5798 5797 5797 5797 5796 5796 5796 5795 5794 5793 5792 5791 5790 5789 5788 5787 5785 5784 5783 5781 5779 5778 5776 5774 5773 5772 5771 5770 5768 5767 5766 5764 5764 5763 5761
5791 5792 5793 5793 5794 5794 5793 5793 5792 5792 5792 5791 5791 5790 5789 5788 5787 5786 5785 5783 5782 5780 5779 5778 5776 5774 5773 5771 5769 5767 5765 5763 5761 5760 5759 5758 5756 5755 5753 5752 5750 5749 5748
5785 5786 5787 5787 5787 5788 5788 5787 5787 5786 5786 5785 5784 5783 5782 5781 5780 5778 5777 5775 5774 5772 5770 5768 5767 5764 5763 5761 5758 5756 5755 5752 5750 5748 5747 5745 5743 5742 5740 5738 5736 5735 5733
5778 5780 5781 5781 5781 5781 5781 5781 5781 5780 5779 5778 5777 5775 5774 5773 5771 5770 5768 5766 5764 5763 5761 5759 5757 5754 5752 5750 5748 5745 5743 5741 5738 5736 5734 5732 5730 5728 5726 5724 5722 5719 5717
5771 5773 5774 5774 5774 5774 5774 5774 5773 5772 5772 5770 5769 5767 5766 5764 5762 5760 5758 5756 5754 5752 5750 5748 5746 5743 5741 5738 5736 5733 5731 5728 5725 5723 5720 5718 5715 5713 5711 5708 5705 5703 5700
5765 5766 5767 5767 5767 5767 5767 5766 5765 5765 5764 5762 5761 5759 5757 5755 5753 5751 5749 5746 5744 5741 5739 5736 5734 5731 5729 5726 5723 5720 5717 5714 5711 5708 5706 5703 5700 5697 5694 5691 5688 5685 5682
5758 5759 5760 5760 5760 5760 5760 5759 5758 5757 5756 5754 5752 5750 5748 5746 5743 5741 5739 5736 5733 5730 5727 5724 5722 5719 5716 5713 5709 5706 5703 5699 5696 5693 5690 5686 5683 5680 5677 5674 5671 5667 5664
Wind_Speed
9 7 6 5 6 8 12 15 15 15 16 16 16 16 15 13 13 12 11 10 9 8 7 6 5 4 3 2 2 2 3 3 3 3 3 3 3 2 1 1 1 2 2
9 7 5 5 6 7 10 13 15 16 16 16 16 16 15 14 14 13 13 11 10 9 8 7 6 5 4 3 2 2 3 3 3 3 3 3 4 3 3 2 1 1 1
10 7 5 5 5 8 9 14 15 16 15 16 17 16 15 15 15 15 13 12 11 10 9 8 7 6 5 4 3 2 2 2 3 3 3 3 3 3 3 2 2 1 0
10 8 6 4 6 8 9 12 14 15 14 14 15 16 14 14 15 15 14 13 12 11 10 9 8 7 6 5 4 3 2 2 2 2 2 2 1 1 1 1 2 2 2
9 8 6 3 3 7 10 11 14 15 14 13 15 16 15 15 15 15 15 14 13 12 12 11 10 9 8 7 6 5 4 3 3 2 1 1 1 1 1 2 2 2 3
8 7 6 4 2 5 8 11 14 15 15 14 16 16 15 15 15 15 15 15 14 14 13 12 11 10 9 9 8 7 6 6 5 5 4 4 4 4 4 4 4 4 4
8 7 6 4 2 4 6 10 13 14 16 15 16 17 16 16 16 15 15 15 16 15 14 14 13 12 11 11 10 10 9 9 9 8 8 8 7 7 7 7 7 7 7
8 7 5 3 2 3 5 8 11 14 15 14 15 16 16 16 16 16 16 17 17 16 16 15 15 14 14 14 13 13 12 12 11 11 11 11 11 11 10 11 11 11 11
7 6 5 4 3 2 5 7 11 13 14 14 15 15 16 17 17 17 18 18 18 18 17 17 17 17 17 17 16 16 16 15 15 15 15 15 14 14 14 14 14 14 14
7 7 6 5 4 3 4 7 10 12 14 15 15 16 16 17 18 19 19 19 19 19 19 19 19 19 19 19 20 20 19 19 19 19 19 18 18 18 18 18 18 18 18
8 8 7 6 6 5 5 7 9 12 13 14 16 17 17 18 19 20 20 20 20 21 21 21 21 21 22 22 23 23 23 23 23 23 23 22 22 22 22 22 22 22 21
8 8 8 8 8 7 6 6 8 10 12 14 15 17 18 19 20 21 21 21 22 22 23 23 23 24 25 25 26 26 26 26 27 27 27 27 26 26 26 26 26 25 25
9 10 10 9 9 9 8 7 8 9 11 13 15 15 17 18 19 20 21 22 23 24 25 26 26 27 28 28 28 29 29 29 30 30 30 30 30 30 30 29 29 29 29
11 10 10 10 10 10 10 9 9 10 11 13 15 15 16 17 19 20 22 23 25 26 27 28 29 30 31 31 32 32 32 32 32 33 33 34 34 33 33 33 33 33 32
12 11 11 11 11 11 10 10 11 12 13 14 15 16 17 18 19 21 23 25 26 27 28 29 31 32 33 34 34 34 35 36 36 36 37 37 37 37 37 36 36 36 35
13 12 13 13 12 12 12 12 12 12 13 15 17 17 17 18 19 21 23 24 25 25 27 28 30 33 34 35 36 37 37 38 38 39 39 39 39 39 40 40 39 39 38
14 13 14 14 13 13 13 13 14 14 15 15 16 17 19 20 20 21 22 22 23 25 28 30 30 31 33 35 36 38 39 40 40 40 40 40 40 40 41 42 42 42 42
16 15 15 15 15 15 15 15 16 16 16 17 19 20 20 21 21 22 24 25 26 28 29 30 31 32 34 36 36 37 39 41 41 41 41 42 42 43 43 43 43 44 44
17 16 16 16 16 16 16 17 16 17 18 18 19 20 21 21 22 23 24 26 28 29 31 32 33 34 35 36 37 38 39 40 41 42 42 42 43 44 44 45 44 45 45
18 17 17 17 18 18 17 17 18 18 19 20 20 21 22 23 24 25 26 28 29 30 31 33 33 33 34 34 35 38 39 40 41 42 42 43 44 44 45 45 46 46 47
20 19 18 18 18 19 19 19 20 20 20 21 21 22 23 24 25 25 26 27 28 30 30 31 32 33 33 34 35 37 39 40 41 42 42 43 44 45 46 47 48 48 49
20 19 20 20 19 20 20 21 21 21 21 22 22 23 24 25 26 27 27 28 29 30 30 32 34 34 35 37 37 38 39 40 42 43 43 44 45 46 47 48 49 50 52
21 21 21 21 21 21 22 22 23 22 23 24 24 25 26 27 28 29 30 30 31 32 33 34 35 36 37 38 38 39 40 41 43 44 45 46 46 48 49 51 53 54 54
20 21 21 21 22 22 23 23 23 24 24 25 26 27 28 29 30 30 31 32 33 34 35 36 37 38 39 40 40 42 43 44 45 46 47 48 50 51 52 53 55 55 56
20 21 21 22 22 23 23 23 24 25 26 27 28 29 30 31 31 32 33 33 34 35 37 37 38 39 41 42 43 45 46 47 48 50 51 51 52 53 54 56 57 57 58
20 20 21 22 22 23 23 24 25 27 28 29 30 31 31 32 33 34 35 35 36 37 38 39 40 41 43 44 46 47 49 50 51 52 53 53 54 54 55 56 57 58 59
Wind_Direction
324 310 295 270 242 224 217 214 207 205 207 206 207 207 206 206 207 208 209 209 210 209 208 202 191 181 170 156 128 109 97 90 82 80 76 78 82 85 89 131 170 193 212
332 319 299 267 231 214 211 209 208 208 206 204 204 205 208 208 208 205 206 208 210 207 204 197 191 185 178 173 156 138 113 102 94 84 78 85 84 83 80 88 104 150 208
328 324 302 265 235 218 214 211 205 208 205 202 203 205 208 208 206 204 205 207 208 205 202 197 194 193 187 183 177 166 150 128 108 93 84 80 79 75 70 65 59 40 310
327 327 316 282 238 218 206 204 204 203 203 202 203 205 207 208 207 206 207 207 208 208 208 204 203 206 205 206 209 208 194 175 152 119 95 84 65 45 29 11 1 343 330
328 329 325 311 239 211 208 205 202 202 204 207 205 207 212 212 211 210 212 211 212 214 214 211 212 216 218 221 224 224 219 215 219 225 241 270 285 297 303 305 313 311 305
323 324 326 320 258 217 210 206 205 206 205 207 206 212 215 217 217 217 217 216 216 217 218 218 220 224 227 229 230 231 231 237 246 254 263 274 281 282 281 282 286 289 288
318 319 323 321 268 215 210 208 207 205 205 205 207 213 217 219 221 221 222 223 221 221 223 225 227 231 234 235 237 239 242 247 254 259 265 272 277 280 280 279 279 281 283
307 317 319 321 296 236 212 210 209 205 204 206 209 214 220 223 222 224 226 228 228 228 230 232 235 238 240 241 243 245 248 251 256 262 267 271 275 277 279 280 280 280 281
299 306 313 304 296 260 227 221 212 210 209 212 215 220 224 226 226 228 230 231 233 234 236 239 242 245 247 248 249 251 253 256 260 264 268 270 273 275 276 277 278 279 279
292 293 298 287 286 275 248 235 226 217 217 220 223 225 225 227 228 230 233 235 236 239 241 244 247 250 252 253 255 256 258 261 263 266 268 270 271 273 274 275 275 276 276
292 287 286 281 273 270 263 243 235 225 225 229 231 232 232 233 233 235 237 238 240 243 245 248 250 253 256 257 258 260 262 264 266 268 269 271 272 272 273 274 274 275 275
296 290 283 277 266 263 264 252 244 235 233 233 235 238 239 239 237 238 240 242 245 248 251 251 253 256 258 259 261 262 264 266 268 269 270 272 273 273 273 274 274 274 274
290 288 277 270 264 261 262 260 257 251 243 238 236 238 241 240 241 243 245 248 250 252 254 256 257 259 260 261 263 264 266 268 269 270 271 272 272 273 273 274 274 274 274
282 282 274 268 265 261 262 264 265 260 252 247 244 244 246 246 248 248 250 252 255 258 259 261 261 262 263 263 265 265 267 268 269 270 272 272 272 273 273 273 274 274 274
275 272 267 268 266 265 267 271 272 267 257 254 251 251 252 254 256 256 257 258 261 262 263 264 264 265 266 266 266 268 269 270 270 271 271 272 272 272 272 273 274 274 274
268 268 264 264 265 264 267 273 275 271 265 260 260 257 256 259 260 261 261 262 263 265 264 265 269 269 267 268 269 269 269 270 271 272 272 272 273 273 272 272 272 273 273
264 264 262 263 264 262 265 270 272 272 269 264 266 267 263 265 265 269 268 268 269 269 268 269 271 272 272 272 272 271 270 270 272 271 271 271 272 272 273 273 273 272 273
261 260 256 257 259 260 263 268 271 274 272 269 269 268 269 270 270 270 269 270 271 271 271 271 272 272 272 271 271 272 272 271 272 271 271 271 272 273 273 273 273 272 273
258 257 254 255 256 260 264 267 271 271 271 272 275 274 274 274 273 274 273 271 272 273 272 271 271 273 273 272 272 273 273 272 271 272 272 272 272 273 273 273 274 274 275
251 252 254 255 258 262 266 269 270 271 272 273 274 277 279 279 279 278 277 275 274 273 273 273 274 275 276 275 275 276 274 272 272 272 273 273 271 272 273 273 274 274 275
250 251 254 257 261 263 267 270 272 273 275 276 277 281 282 282 283 284 283 281 279 278 278 278 278 278 278 277 277 277 276 274 273 273 274 274 273 272 274 275 274 275 275
252 253 257 260 263 265 268 272 274 275 279 281 281 283 284 285 285 285 285 284 282 282 281 279 280 280 279 278 278 278 276 276 275 274 274 274 274 274 274 275 276 276 276
251 256 260 264 266 267 270 274 276 279 282 283 284 285 287 288 287 287 286 285 283 282 281 281 281 281 281 279 278 278 277 277 276 276 276 275 275 275 276 277 277 276 276
251 257 261 266 269 272 273 276 279 283 285 286 286 287 288 289 289 288 287 286 286 285 284 283 282 281 280 280 279 279 279 280 280 280 279 278 278 278 278 278 278 278 278
252 257 261 267 271 274 276 279 282 285 287 288 289 289 290 290 290 290 289 288 287 286 285 284 283 282 281 281 280 280 280 280 280 280 280 281 280 280 279 279 279 279 279
252 257 264 269 272 276 280 283 285 287 289 290 291 292 291 291 291 290 290 289 288 287 287 286 284 283 282 282 282 281 282 282 282 281 282 282 281 281 280 280 280 281 281